Location: Holbach
(51.5399°N, 10.6036°E)
Time: 07:00:08
(UTC+00:00)

Cosmos 1892 Rocket - Pass Details

Date: 18 September 2020
Orbit: 605 x 634 km, 82.5° (Epoch: 19 October)

Event Time Altitude Azimuth Distance (km) Brightness Sun altitude
Rises 20:14:04 0° 348° (NNW) 2,879 7.7 -25.1°
Reaches altitude 10° 20:16:17 10° 348° (NNW) 1,969 6.8 -25.4°
Enters shadow 20:20:07 67° 327° (NNW) 662 3.8 -25.9°
